Tracking 20093 objects as of 14-Dec-2019
HD Live streaming from Space Station
objects crossing your sky now

DELTA 1 DEB

Track DELTA 1 DEB now!
10-day predictions


NORAD ID: 12166
Int'l Code: 1978-026F
Perigee: 816.1 km
Apogee: 871.6 km
Inclination: 98.9 °
Period: 101.6 minutes
Semi major axis: 7214 km
RCS: 0.6029 m2 (medium)
Launch date: March 5, 1978
Source: United States (US)
Launch site: AIR FORCE WESTERN TEST RANGE (AFWTR)

Note: This is SATELLITE DEBRIS
aabbcc
Your satellite tracking list
Your tracking list is empty




NASA's NSSDC Master Catalog

Two Line Element Set (TLE):
1 12166U 78026F   19348.13010686  .00000028  00000-0  36042-4 0  9998
2 12166  98.9139 329.2693 0038436 141.1277 355.0156 14.16644493  3277
Source of the keplerian elements: AFSPC